| time (UTC) | temp F | wind direction | speed MPH | gust MPH | rain 1hr in | rain 24hr in | rain mn in | humidity % | barometer mb |
| 20260509224049 | 91 | 226 | 5.0 | 11.0 | 0.00 | 0.00 | 0.00 | 34 | 938.7 |
| 20260509223548 | 91 | 198 | 5.0 | 11.0 | 0.00 | 0.00 | 0.00 | 35 | 938.6 |
| 20260509223043 | 91 | 202 | 6.0 | 13.0 | 0.00 | 0.00 | 0.00 | 32 | 938.7 |
| 20260509222536 | 91 | 194 | 6.0 | 13.0 | 0.00 | 0.00 | 0.00 | 34 | 938.7 |
| 20260509222301 | 91 | 212 | 6.0 | 12.0 | 0.00 | 0.00 | 0.00 | 35 | 938.7 |
| 20260509221525 | 91 | 202 | 7.0 | 15.0 | 0.00 | 0.00 | 0.00 | 36 | 938.7 |
| 20260509221019 | 91 | 198 | 7.0 | 15.0 | 0.00 | 0.00 | 0.00 | 37 | 938.7 |
| 20260509220512 | 91 | 213 | 7.0 | 13.0 | 0.00 | 0.00 | 0.00 | 33 | 938.7 |
| 20260509220007 | 91 | 136 | 6.0 | 13.0 | 0.00 | 0.00 | 0.00 | 36 | 938.7 |
| 20260509215501 | 91 | 150 | 7.0 | 13.0 | 0.00 | 0.00 | 0.00 | 38 | 938.7 |
| 20260509214954 | 91 | 158 | 7.0 | 14.0 | 0.00 | 0.00 | 0.00 | 35 | 938.8 |
| 20260509214720 | 91 | 143 | 7.0 | 14.0 | 0.00 | 0.00 | 0.00 | 36 | 938.8 |
| 20260509213942 | 91 | 117 | 7.0 | 14.0 | 0.00 | 0.00 | 0.00 | 37 | 938.8 |
| 20260509213436 | 91 | 171 | 7.0 | 14.0 | 0.00 | 0.00 | 0.00 | 37 | 938.9 |
| 20260509212931 | 91 | 206 | 6.0 | 12.0 | 0.00 | 0.00 | 0.00 | 38 | 938.9 |
| 20260509212425 | 91 | 185 | 6.0 | 13.0 | 0.00 | 0.00 | 0.00 | 37 | 938.9 |
| 20260509211919 | 91 | 214 | 7.0 | 14.0 | 0.00 | 0.00 | 0.00 | 37 | 939.1 |
| 20260509211413 | 91 | 205 | 6.0 | 14.0 | 0.00 | 0.00 | 0.00 | 40 | 939.2 |
| 20260509211139 | 91 | 201 | 6.0 | 9.0 | 0.00 | 0.00 | 0.00 | 41 | 939.2 |
| 20260509210401 | 91 | 194 | 5.0 | 14.0 | 0.00 | 0.00 | 0.00 | 36 | 939.3 |
| 20260509210125 | 91 | 221 | 6.0 | 13.0 | 0.00 | 0.00 | 0.00 | 37 | 939.5 |
| 20260509205619 | 91 | 202 | 7.0 | 14.0 | 0.00 | 0.00 | 0.00 | 37 | 939.5 |
| 20260509204843 | 91 | 169 | 6.0 | 13.0 | 0.00 | 0.00 | 0.00 | 39 | 939.6 |
| 20260509204838 | 91 | 194 | 6.0 | 13.0 | 0.00 | 0.00 | 0.00 | 40 | 939.7 |
| 20260509203831 | 91 | 204 | 5.0 | 12.0 | 0.00 | 0.00 | 0.00 | 42 | 939.7 |
| 20260509203324 | 90 | 180 | 7.0 | 13.0 | 0.00 | 0.00 | 0.00 | 38 | 939.8 |
| 20260509202819 | 90 | 134 | 8.0 | 14.0 | 0.00 | 0.00 | 0.00 | 39 | 940.0 |
| 20260509202312 | 89 | 171 | 6.0 | 14.0 | 0.00 | 0.00 | 0.00 | 39 | 940.0 |
| 20260509201807 | 90 | 180 | 5.0 | 13.0 | 0.00 | 0.00 | 0.00 | 39 | 940.0 |
| 20260509201301 | 90 | 207 | 7.0 | 13.0 | 0.00 | 0.00 | 0.00 | 40 | 940.1 |
| 20260509200754 | 90 | 252 | 7.0 | 12.0 | 0.00 | 0.00 | 0.00 | 38 | 940.2 |
| 20260509200249 | 90 | 164 | 6.0 | 13.0 | 0.00 | 0.00 | 0.00 | 37 | 940.2 |
| 20260509195742 | 90 | 130 | 6.0 | 13.0 | 0.00 | 0.00 | 0.00 | 41 | 940.2 |
| 20260509195237 | 89 | 108 | 5.0 | 13.0 | 0.00 | 0.00 | 0.00 | 40 | 940.3 |
| 20260509194731 | 89 | 205 | 4.0 | 11.0 | 0.00 | 0.00 | 0.00 | 43 | 940.4 |
| 20260509194225 | 89 | 244 | 4.0 | 10.0 | 0.00 | 0.00 | 0.00 | 43 | 940.5 |
| 20260509193718 | 89 | 229 | 5.0 | 11.0 | 0.00 | 0.00 | 0.00 | 42 | 940.6 |
| 20260509193443 | 89 | 228 | 5.0 | 11.0 | 0.00 | 0.00 | 0.00 | 40 | 940.7 |
| 20260509192706 | 89 | 155 | 5.0 | 10.0 | 0.00 | 0.00 | 0.00 | 43 | 940.7 |
| 20260509192257 | 88 | 188 | 6.0 | 14.0 | 0.00 | 0.00 | 0.00 | 42 | 940.8 |
| 20260509192200 | 88 | 182 | 7.0 | 14.0 | 0.00 | 0.00 | 0.00 | 42 | 940.7 |
| 20260509191949 | 88 | 175 | 6.0 | 13.0 | 0.00 | 0.00 | 0.00 | 44 | 940.8 |
| 20260509190643 | 88 | 205 | 6.0 | 14.0 | 0.00 | 0.00 | 0.00 | 44 | 940.8 |
| 20260509190136 | 88 | 211 | 6.0 | 14.0 | 0.00 | 0.00 | 0.00 | 43 | 940.9 |
| 20260509185901 | 88 | 194 | 5.0 | 12.0 | 0.00 | 0.00 | 0.00 | 43 | 940.9 |
| 20260509185125 | 88 | 171 | 5.0 | 12.0 | 0.00 | 0.00 | 0.00 | 44 | 941.0 |
| 20260509184619 | 87 | 174 | 6.0 | 12.0 | 0.00 | 0.00 | 0.00 | 45 | 941.1 |
| 20260509184343 | 87 | 225 | 5.0 | 14.0 | 0.00 | 0.00 | 0.00 | 45 | 941.0 |
| 20260509183607 | 87 | 185 | 5.0 | 14.0 | 0.00 | 0.00 | 0.00 | 49 | 941.2 |
| 20260509183101 | 87 | 217 | 5.0 | 13.0 | 0.00 | 0.00 | 0.00 | 46 | 941.2 |
| 20260509182554 | 86 | 207 | 5.0 | 13.0 | 0.00 | 0.00 | 0.00 | 52 | 941.3 |
| 20260509182049 | 86 | 181 | 6.0 | 13.0 | 0.00 | 0.00 | 0.00 | 47 | 941.4 |
| 20260509181543 | 86 | 186 | 7.0 | 13.0 | 0.00 | 0.00 | 0.00 | 47 | 941.5 |
| 20260509181036 | 86 | 236 | 5.0 | 12.0 | 0.00 | 0.00 | 0.00 | 50 | 941.5 |
| 20260509180531 | 85 | 212 | 5.0 | 10.0 | 0.00 | 0.00 | 0.00 | 50 | 941.6 |
| 20260509180025 | 85 | 187 | 6.0 | 11.0 | 0.00 | 0.00 | 0.00 | 52 | 941.7 |
| 20260509175526 | 85 | 218 | 7.0 | 11.0 | 0.00 | 0.00 | 0.00 | 54 | 941.7 |
| 20260509175306 | 85 | 133 | 5.0 | 10.0 | 0.00 | 0.00 | 0.00 | 54 | 941.7 |
| 20260509174526 | 85 | 154 | 5.0 | 10.0 | 0.00 | 0.00 | 0.00 | 55 | 941.8 |
| 20260509174026 | 85 | 200 | 6.0 | 10.0 | 0.00 | 0.00 | 0.00 | 54 | 941.9 |
| 20260509173527 | 85 | 181 | 6.0 | 12.0 | 0.00 | 0.00 | 0.00 | 55 | 941.9 |
| 20260509173030 | 84 | 167 | 5.0 | 12.0 | 0.00 | 0.00 | 0.00 | 53 | 942.0 |
| 20260509172533 | 84 | 178 | 5.0 | 12.0 | 0.00 | 0.00 | 0.00 | 57 | 942.2 |
| 20260509172528 | 84 | 199 | 4.0 | 9.0 | 0.00 | 0.00 | 0.00 | 58 | 942.1 |
| 20260509171524 | 83 | 228 | 5.0 | 12.0 | 0.00 | 0.00 | 0.00 | 57 | 942.2 |
| 20260509171022 | 83 | 117 | 6.0 | 12.0 | 0.00 | 0.00 | 0.00 | 56 | 942.3 |
| 20260509170522 | 83 | 121 | 5.0 | 12.0 | 0.00 | 0.00 | 0.00 | 57 | 942.2 |
| 20260509170021 | 83 | 156 | 4.0 | 10.0 | 0.00 | 0.00 | 0.00 | 60 | 942.3 |
| 20260509165523 | 82 | 206 | 6.0 | 11.0 | 0.00 | 0.00 | 0.00 | 61 | 942.3 |
| 20260509165024 | 82 | 192 | 7.0 | 12.0 | 0.00 | 0.00 | 0.00 | 59 | 942.4 |
| 20260509164518 | 82 | 202 | 6.0 | 12.0 | 0.00 | 0.00 | 0.00 | 60 | 942.5 |
| 20260509164018 | 81 | 183 | 6.0 | 13.0 | 0.00 | 0.00 | 0.00 | 62 | 942.5 |
| 20260509163517 | 81 | 191 | 6.0 | 13.0 | 0.00 | 0.00 | 0.00 | 62 | 942.5 |
| 20260509163019 | 81 | 184 | 5.0 | 11.0 | 0.00 | 0.00 | 0.00 | 62 | 942.5 |
| 20260509162519 | 81 | 247 | 5.0 | 9.0 | 0.00 | 0.00 | 0.00 | 63 | 942.5 |
| 20260509162017 | 80 | 200 | 5.0 | 11.0 | 0.00 | 0.00 | 0.00 | 65 | 942.4 |
| 20260509161518 | 80 | 221 | 6.0 | 13.0 | 0.00 | 0.00 | 0.00 | 64 | 942.4 |
| 20260509161019 | 80 | 205 | 6.0 | 13.0 | 0.00 | 0.00 | 0.00 | 64 | 942.3 |
| 20260509160519 | 80 | 260 | 6.0 | 13.0 | 0.00 | 0.00 | 0.00 | 68 | 942.3 |
| 20260509160014 | 79 | 237 | 6.0 | 13.0 | 0.00 | 0.00 | 0.00 | 68 | 942.3 |
| 20260509155514 | 79 | 217 | 6.0 | 13.0 | 0.00 | 0.00 | 0.00 | 67 | 942.4 |
| 20260509155015 | 79 | 258 | 6.0 | 13.0 | 0.00 | 0.00 | 0.00 | 70 | 942.4 |
| 20260509154514 | 78 | 190 | 7.0 | 13.0 | 0.00 | 0.00 | 0.00 | 70 | 942.4 |
| 20260509154012 | 78 | 199 | 6.0 | 15.0 | 0.00 | 0.00 | 0.00 | 70 | 942.5 |
| 20260509153512 | 78 | 254 | 6.0 | 15.0 | 0.00 | 0.00 | 0.00 | 72 | 942.4 |
| 20260509153013 | 78 | 186 | 5.0 | 12.0 | 0.00 | 0.00 | 0.00 | 73 | 942.4 |
| 20260509152513 | 77 | 228 | 6.0 | 13.0 | 0.00 | 0.00 | 0.00 | 74 | 942.4 |
| 20260509152012 | 77 | 198 | 7.0 | 14.0 | 0.00 | 0.00 | 0.00 | 74 | 942.4 |
| 20260509151505 | 76 | 236 | 7.0 | 14.0 | 0.00 | 0.00 | 0.00 | 74 | 942.4 |
| 20260509151231 | 76 | 269 | 8.0 | 16.0 | 0.00 | 0.00 | 0.00 | 74 | 942.4 |
| 20260509150453 | 76 | 235 | 8.0 | 16.0 | 0.00 | 0.00 | 0.00 | 76 | 942.4 |
| 20260509145948 | 75 | 198 | 6.0 | 12.0 | 0.00 | 0.00 | 0.00 | 77 | 942.4 |
| 20260509145714 | 74 | 241 | 5.0 | 12.0 | 0.00 | 0.00 | 0.00 | 80 | 942.4 |
| 20260509144935 | 74 | 198 | 4.0 | 10.0 | 0.00 | 0.00 | 0.00 | 81 | 942.5 |
| 20260509144701 | 73 | 225 | 5.0 | 11.0 | 0.00 | 0.00 | 0.00 | 82 | 942.5 |
| 20260509143923 | 72 | 231 | 5.0 | 11.0 | 0.00 | 0.00 | 0.00 | 84 | 942.7 |
| 20260509143418 | 72 | 257 | 5.0 | 11.0 | 0.00 | 0.00 | 0.00 | 84 | 942.7 |
| 20260509143138 | 71 | 207 | 5.0 | 9.0 | 0.00 | 0.00 | 0.00 | 86 | 942.8 |
| 20260509143012 | 71 | 248 | 4.0 | 11.0 | 0.00 | 0.00 | 0.00 | 85 | 942.7 |
| 20260509142130 | 70 | 198 | 6.0 | 10.0 | 0.00 | 0.00 | 0.00 | 86 | 942.9 |
| 20260509141354 | 70 | 182 | 5.0 | 10.0 | 0.00 | 0.00 | 0.00 | 86 | 942.9 |
| 20260509140847 | 70 | 160 | 4.0 | 9.0 | 0.00 | 0.00 | 0.00 | 87 | 942.9 |
| 20260509140342 | 69 | 248 | 4.0 | 9.0 | 0.00 | 0.00 | 0.00 | 89 | 942.9 |
| 20260509135836 | 69 | 267 | 4.0 | 10.0 | 0.00 | 0.00 | 0.00 | 89 | 942.9 |
| 20260509135330 | 68 | 230 | 4.0 | 10.0 | 0.00 | 0.00 | 0.00 | 91 | 943.0 |
| 20260509134824 | 68 | 242 | 4.0 | 8.0 | 0.00 | 0.00 | 0.00 | 92 | 942.9 |
| 20260509134318 | 67 | 246 | 3.0 | 8.0 | 0.00 | 0.00 | 0.00 | 93 | 942.8 |
| 20260509133812 | 67 | 235 | 3.0 | 7.0 | 0.00 | 0.00 | 0.00 | 94 | 942.8 |
| 20260509133306 | 66 | 234 | 4.0 | 10.0 | 0.00 | 0.00 | 0.00 | 94 | 942.8 |
| 20260509132759 | 66 | 215 | 4.0 | 10.0 | 0.00 | 0.00 | 0.00 | 94 | 942.8 |
| 20260509132254 | 66 | 257 | 3.0 | 8.0 | 0.00 | 0.00 | 0.00 | 95 | 942.9 |
| 20260509131747 | 66 | 218 | 2.0 | 4.0 | 0.00 | 0.00 | 0.00 | 96 | 942.7 |
| 20260509131242 | 65 | 225 | 1.0 | 4.0 | 0.00 | 0.00 | 0.00 | 96 | 942.7 |
| 20260509130736 | 65 | 244 | 1.0 | 3.0 | 0.00 | 0.00 | 0.00 | 95 | 942.6 |
| 20260509130230 | 64 | 244 | 1.0 | 2.0 | 0.00 | 0.00 | 0.00 | 95 | 942.6 |
| 20260509125723 | 64 | 244 | 1.0 | 3.0 | 0.00 | 0.00 | 0.00 | 95 | 942.4 |
| 20260509125218 | 64 | 208 | 1.0 | 3.0 | 0.00 | 0.00 | 0.00 | 96 | 942.4 |
| 20260509124942 | 64 | 212 | 2.0 | 4.0 | 0.00 | 0.00 | 0.00 | 95 | 942.3 |
| 20260509124206 | 63 | 225 | 2.0 | 5.0 | 0.00 | 0.00 | 0.00 | 95 | 942.3 |
| 20260509123659 | 62 | 244 | 2.0 | 5.0 | 0.00 | 0.00 | 0.00 | 95 | 942.3 |
| 20260509123420 | 60 | 207 | 2.0 | 4.0 | 0.00 | 0.00 | 0.00 | 95 | 942.3 |
| 20260509123255 | 61 | 188 | 2.0 | 3.0 | 0.00 | 0.00 | 0.00 | 95 | 942.4 |
| 20260509122141 | 60 | 201 | 1.0 | 4.0 | 0.00 | 0.00 | 0.00 | 94 | 942.2 |
| 20260509121636 | 60 | 283 | 1.0 | 2.0 | 0.00 | 0.00 | 0.00 | 93 | 942.3 |
| 20260509121400 | 60 | 283 | 1.0 | 3.0 | 0.00 | 0.00 | 0.00 | 93 | 942.3 |
| 20260509120118 | 61 | 271 | 1.0 | 2.0 | 0.00 | 0.00 | 0.00 | 93 | 942.3 |
| 20260509115611 | 61 | 271 | 1.0 | 3.0 | 0.00 | 0.00 | 0.00 | 93 | 942.1 |
| 20260509115106 | 61 | 283 | 1.0 | 3.0 | 0.00 | 0.00 | 0.00 | 93 | 942.1 |
| 20260509114830 | 61 | 237 | 1.0 | 3.0 | 0.00 | 0.00 | 0.00 | 93 | 942.0 |
| 20260509114053 | 61 | 173 | 1.0 | 3.0 | 0.00 | 0.00 | 0.00 | 93 | 941.9 |
| 20260509113818 | 61 | 134 | 1.0 | 3.0 | 0.00 | 0.00 | 0.00 | 93 | 941.8 |
| 20260509113041 | 61 | 134 | 1.0 | 3.0 | 0.00 | 0.00 | 0.00 | 92 | 941.7 |
| 20260509112535 | 62 | 154 | 1.0 | 2.0 | 0.00 | 0.00 | 0.00 | 92 | 941.6 |
| 20260509112030 | 62 | 154 | 1.0 | 3.0 | 0.00 | 0.00 | 0.00 | 92 | 941.5 |
| 20260509111524 | 62 | 154 | 2.0 | 4.0 | 0.00 | 0.00 | 0.00 | 92 | 941.5 |
| 20260509111018 | 62 | 132 | 2.0 | 4.0 | 0.00 | 0.00 | 0.00 | 92 | 941.6 |
| 20260509110743 | 62 | 108 | 1.0 | 3.0 | 0.00 | 0.00 | 0.00 | 92 | 941.5 |
| 20260509110005 | 62 | 122 | 2.0 | 4.0 | 0.00 | 0.00 | 0.00 | 92 | 941.5 |
| 20260509105731 | 62 | 121 | 2.0 | 4.0 | 0.00 | 0.00 | 0.00 | 92 | 941.4 |
| 20260509104954 | 63 | 130 | 3.0 | 6.0 | 0.00 | 0.00 | 0.00 | 92 | 941.3 |
| 20260509104448 | 63 | 131 | 3.0 | 6.0 | 0.00 | 0.00 | 0.00 | 92 | 941.3 |
| 20260509103941 | 63 | 130 | 3.0 | 7.0 | 0.00 | 0.00 | 0.00 | 92 | 941.4 |
| 20260509103708 | 63 | 112 | 4.0 | 7.0 | 0.00 | 0.00 | 0.00 | 92 | 941.5 |
| 20260509103200 | 63 | 96 | 4.0 | 9.0 | 0.00 | 0.00 | 0.00 | 92 | 941.5 |
| 20260509102424 | 63 | 92 | 5.0 | 9.0 | 0.00 | 0.00 | 0.00 | 92 | 941.5 |
| 20260509101918 | 63 | 114 | 5.0 | 8.0 | 0.00 | 0.00 | 0.00 | 92 | 941.6 |
| 20260509101412 | 63 | 142 | 3.0 | 8.0 | 0.00 | 0.00 | 0.00 | 92 | 941.6 |
| 20260509101136 | 63 | 118 | 2.0 | 6.0 | 0.00 | 0.00 | 0.00 | 91 | 941.7 |
| 20260509100400 | 63 | 122 | 3.0 | 5.0 | 0.00 | 0.00 | 0.00 | 91 | 941.8 |
| 20260509095853 | 63 | 146 | 3.0 | 5.0 | 0.00 | 0.00 | 0.00 | 91 | 941.8 |
| 20260509094841 | 64 | 162 | 1.0 | 3.0 | 0.00 | 0.00 | 0.00 | 89 | 941.7 |
| 20260509094335 | 64 | 155 | 2.0 | 3.0 | 0.00 | 0.00 | 0.00 | 89 | 941.8 |
| 20260509093830 | 64 | 150 | 3.0 | 7.0 | 0.00 | 0.00 | 0.00 | 89 | 941.7 |
| 20260509093551 | 65 | 96 | 7.0 | 10.0 | 0.00 | 0.00 | 0.00 | 88 | 941.6 |
| 20260509093426 | 64 | 106 | 5.0 | 10.0 | 0.00 | 0.00 | 0.00 | 88 | 941.7 |
| 20260509092318 | 65 | 94 | 6.0 | 11.0 | 0.00 | 0.00 | 0.00 | 88 | 941.7 |
| 20260509092054 | 65 | 100 | 7.0 | 11.0 | 0.00 | 0.00 | 0.00 | 87 | 941.6 |
| 20260509091319 | 65 | 125 | 6.0 | 11.0 | 0.00 | 0.00 | 0.00 | 87 | 941.5 |
| 20260509090820 | 65 | 138 | 7.0 | 13.0 | 0.00 | 0.00 | 0.00 | 86 | 941.6 |
| 20260509090318 | 65 | 113 | 7.0 | 13.0 | 0.00 | 0.00 | 0.00 | 86 | 941.7 |
| 20260509085825 | 66 | 106 | 7.0 | 13.0 | 0.00 | 0.00 | 0.00 | 85 | 941.7 |
| 20260509085552 | 66 | 117 | 7.0 | 12.0 | 0.00 | 0.00 | 0.00 | 85 | 941.8 |
| 20260509084818 | 66 | 146 | 6.0 | 12.0 | 0.00 | 0.00 | 0.00 | 85 | 942.0 |
| 20260509084319 | 67 | 90 | 8.0 | 12.0 | 0.00 | 0.00 | 0.00 | 85 | 942.0 |
| 20260509083820 | 67 | 119 | 9.0 | 15.0 | 0.00 | 0.00 | 0.00 | 85 | 942.1 |
| 20260509083550 | 67 | 105 | 9.0 | 15.0 | 0.00 | 0.00 | 0.00 | 85 | 942.3 |
| 20260509082819 | 67 | 90 | 10.0 | 15.0 | 0.00 | 0.00 | 0.00 | 86 | 942.3 |
| 20260509082319 | 67 | 101 | 10.0 | 15.0 | 0.00 | 0.00 | 0.00 | 86 | 942.5 |
| 20260509081816 | 68 | 74 | 10.0 | 17.0 | 0.00 | 0.00 | 0.00 | 87 | 942.6 |
| 20260509081314 | 68 | 76 | 9.0 | 17.0 | 0.00 | 0.00 | 0.00 | 87 | 942.5 |
| 20260509080814 | 68 | 97 | 8.0 | 15.0 | 0.00 | 0.00 | 0.00 | 90 | 942.7 |
| 20260509080316 | 68 | 67 | 7.0 | 13.0 | 0.00 | 0.00 | 0.00 | 92 | 942.7 |
| 20260509075814 | 68 | 67 | 6.0 | 11.0 | 0.00 | 0.00 | 0.00 | 92 | 942.8 |
| 20260509075314 | 68 | 59 | 6.0 | 11.0 | 0.00 | 0.00 | 0.00 | 93 | 942.4 |
| 20260509074815 | 68 | 90 | 6.0 | 11.0 | 0.00 | 0.00 | 0.00 | 93 | 942.5 |
| 20260509074314 | 68 | 112 | 7.0 | 14.0 | 0.00 | 0.00 | 0.00 | 93 | 942.5 |
| 20260509073815 | 68 | 69 | 7.0 | 14.0 | 0.00 | 0.00 | 0.00 | 93 | 942.5 |
| 20260509073316 | 68 | 69 | 7.0 | 16.0 | 0.00 | 0.00 | 0.00 | 93 | 942.5 |
| 20260509073046 | 68 | 25 | 7.0 | 16.0 | 0.00 | 0.00 | 0.00 | 94 | 942.8 |
| 20260509072314 | 68 | 90 | 8.0 | 14.0 | 0.00 | 0.00 | 0.00 | 94 | 942.9 |
| 20260509071816 | 68 | 57 | 8.0 | 14.0 | 0.00 | 0.00 | 0.00 | 95 | 942.9 |
| 20260509071314 | 67 | 355 | 8.0 | 13.0 | 0.00 | 0.00 | 0.00 | 95 | 943.1 |
| 20260509070814 | 66 | 49 | 5.0 | 12.0 | 0.00 | 0.00 | 0.00 | 94 | 942.8 |
| 20260509070546 | 65 | 39 | 3.0 | 9.0 | 0.00 | 0.00 | 0.00 | 93 | 942.7 |
| 20260509065814 | 66 | 31 | 2.0 | 4.0 | 0.00 | 0.00 | 0.00 | 92 | 942.1 |
| 20260509065316 | 66 | 90 | 2.0 | 4.0 | 0.00 | 0.00 | 0.00 | 93 | 941.8 |
| 20260509064809 | 66 | 98 | 2.0 | 4.0 | 0.00 | 0.00 | 0.00 | 92 | 941.6 |
| 20260509064535 | 66 | 98 | 1.0 | 4.0 | 0.00 | 0.00 | 0.00 | 92 | 941.5 |
| 20260509064027 | 67 | 72 | 1.0 | 2.0 | 0.00 | 0.00 | 0.00 | 92 | 941.6 |
| 20260509063522 | 67 | 72 | 1.0 | 2.0 | 0.00 | 0.00 | 0.00 | 92 | 941.6 |
| 20260509062745 | 67 | 72 | 2.0 | 4.0 | 0.00 | 0.00 | 0.00 | 92 | 941.4 |
| 20260509062238 | 67 | 331 | 3.0 | 7.0 | 0.00 | 0.00 | 0.00 | 92 | 941.6 |
| 20260509062003 | 67 | 350 | 3.0 | 7.0 | 0.00 | 0.00 | 0.00 | 92 | 941.8 |
| 20260509061227 | 67 | 130 | 4.0 | 15.0 | 0.00 | 0.00 | 0.00 | 93 | 941.4 |
| 20260509060721 | 67 | 342 | 6.0 | 15.0 | 0.00 | 0.00 | 0.00 | 93 | 941.4 |
| 20260509060214 | 67 | 319 | 2.0 | 14.0 | 0.00 | 0.00 | 0.00 | 91 | 941.3 |
| 20260509055710 | 67 | 139 | 1.0 | 3.0 | 0.00 | 0.00 | 0.00 | 91 | 940.5 |
| 20260509055436 | 68 | 92 | 2.0 | 4.0 | 0.00 | 0.00 | 0.00 | 91 | 940.5 |
| 20260509054658 | 68 | 121 | 3.0 | 6.0 | 0.00 | 0.00 | 0.00 | 91 | 940.4 |
| 20260509054152 | 68 | 119 | 3.0 | 6.0 | 0.00 | 0.00 | 0.00 | 91 | 940.3 |
| 20260509053646 | 68 | 134 | 3.0 | 4.0 | 0.00 | 0.00 | 0.00 | 91 | 940.3 |
| 20260509053140 | 68 | 147 | 3.0 | 7.0 | 0.00 | 0.00 | 0.00 | 91 | 940.3 |
| 20260509052633 | 69 | 119 | 3.0 | 7.0 | 0.00 | 0.00 | 0.00 | 90 | 940.3 |
| 20260509052128 | 69 | 153 | 4.0 | 8.0 | 0.00 | 0.00 | 0.00 | 90 | 940.3 |
| 20260509051621 | 69 | 127 | 4.0 | 8.0 | 0.00 | 0.00 | 0.00 | 90 | 940.4 |
| 20260509051116 | 69 | 115 | 3.0 | 7.0 | 0.00 | 0.00 | 0.00 | 90 | 940.4 |
| 20260509050609 | 69 | 132 | 4.0 | 8.0 | 0.00 | 0.00 | 0.00 | 90 | 940.4 |
| 20260509045558 | 69 | 111 | 5.0 | 8.0 | 0.00 | 0.00 | 0.00 | 89 | 940.4 |
| 20260509045051 | 69 | 126 | 4.0 | 8.0 | 0.00 | 0.00 | 0.00 | 89 | 940.6 |
| 20260509044546 | 70 | 135 | 4.0 | 8.0 | 0.00 | 0.00 | 0.00 | 89 | 940.6 |
| 20260509044311 | 70 | 161 | 4.0 | 8.0 | 0.00 | 0.00 | 0.00 | 89 | 940.6 |
| 20260509043534 | 70 | 146 | 4.0 | 9.0 | 0.00 | 0.00 | 0.00 | 88 | 940.7 |
| 20260509043305 | 70 | 178 | 5.0 | 10.0 | 0.00 | 0.00 | 0.00 | 88 | 940.8 |
| 20260509042531 | 70 | 128 | 5.0 | 11.0 | 0.00 | 0.00 | 0.00 | 88 | 940.9 |
| 20260509042029 | 70 | 124 | 5.0 | 11.0 | 0.00 | 0.00 | 0.00 | 88 | 940.8 |
| 20260509041800 | 71 | 115 | 6.0 | 12.0 | 0.00 | 0.00 | 0.00 | 87 | 940.6 |
| 20260509041029 | 71 | 148 | 6.0 | 12.0 | 0.00 | 0.00 | 0.00 | 87 | 940.6 |
| 20260509040529 | 71 | 117 | 6.0 | 12.0 | 0.00 | 0.00 | 0.00 | 87 | 940.5 |
| 20260509040035 | 71 | 143 | 6.0 | 10.0 | 0.00 | 0.00 | 0.00 | 86 | 940.4 |
| 20260509035529 | 71 | 186 | 5.0 | 14.0 | 0.00 | 0.00 | 0.00 | 86 | 940.3 |
| 20260509035259 | 71 | 134 | 6.0 | 14.0 | 0.00 | 0.00 | 0.00 | 86 | 940.3 |
| 20260509034529 | 71 | 145 | 6.0 | 12.0 | 0.00 | 0.00 | 0.00 | 86 | 940.2 |
| 20260509034029 | 71 | 144 | 6.0 | 12.0 | 0.00 | 0.00 | 0.00 | 86 | 940.2 |
| 20260509033801 | 71 | 133 | 6.0 | 11.0 | 0.00 | 0.00 | 0.00 | 85 | 940.2 |
| 20260509033306 | 71 | 131 | 5.0 | 10.0 | 0.00 | 0.00 | 0.00 | 85 | 940.1 |
| 20260509032528 | 71 | 138 | 5.0 | 10.0 | 0.00 | 0.00 | 0.00 | 85 | 940.2 |
| 20260509032024 | 71 | 147 | 5.0 | 10.0 | 0.00 | 0.00 | 0.00 | 85 | 940.2 |
| 20260509031523 | 71 | 133 | 5.0 | 10.0 | 0.00 | 0.00 | 0.00 | 84 | 940.1 |
| 20260509031022 | 71 | 136 | 5.0 | 8.0 | 0.00 | 0.00 | 0.00 | 84 | 940.1 |
| 20260509030523 | 72 | 152 | 5.0 | 9.0 | 0.00 | 0.00 | 0.00 | 83 | 940.1 |
| 20260509030018 | 72 | 151 | 4.0 | 9.0 | 0.00 | 0.00 | 0.00 | 83 | 940.0 |
| 20260509025511 | 72 | 141 | 4.0 | 8.0 | 0.00 | 0.00 | 0.00 | 83 | 940.0 |
| 20260509025237 | 72 | 155 | 5.0 | 9.0 | 0.00 | 0.00 | 0.00 | 82 | 939.9 |
| 20260509024459 | 72 | 150 | 5.0 | 10.0 | 0.00 | 0.00 | 0.00 | 82 | 939.8 |
| 20260509023954 | 72 | 166 | 5.0 | 10.0 | 0.00 | 0.00 | 0.00 | 82 | 939.8 |
| 20260509023448 | 72 | 142 | 4.0 | 9.0 | 0.00 | 0.00 | 0.00 | 81 | 939.8 |
| 20260509022941 | 73 | 128 | 3.0 | 7.0 | 0.00 | 0.00 | 0.00 | 81 | 939.8 |
| 20260509022436 | 73 | 143 | 3.0 | 7.0 | 0.00 | 0.00 | 0.00 | 80 | 939.8 |
| 20260509021930 | 73 | 157 | 3.0 | 6.0 | 0.00 | 0.00 | 0.00 | 80 | 939.7 |
| 20260509021424 | 73 | 142 | 3.0 | 6.0 | 0.00 | 0.00 | 0.00 | 79 | 939.6 |
| 20260509020917 | 73 | 144 | 2.0 | 5.0 | 0.00 | 0.00 | 0.00 | 79 | 939.5 |
| 20260509020412 | 74 | 169 | 2.0 | 5.0 | 0.00 | 0.00 | 0.00 | 78 | 939.4 |
| 20260509015905 | 74 | 145 | 3.0 | 6.0 | 0.00 | 0.00 | 0.00 | 78 | 939.3 |
| 20260509015400 | 74 | 145 | 3.0 | 6.0 | 0.00 | 0.00 | 0.00 | 77 | 939.3 |
| 20260509014854 | 74 | 146 | 3.0 | 5.0 | 0.00 | 0.00 | 0.00 | 76 | 939.3 |
| 20260509014348 | 75 | 149 | 3.0 | 6.0 | 0.00 | 0.00 | 0.00 | 76 | 939.3 |
| 20260509013842 | 75 | 177 | 3.0 | 6.0 | 0.00 | 0.00 | 0.00 | 75 | 939.2 |
| 20260509013336 | 75 | 158 | 4.0 | 7.0 | 0.00 | 0.00 | 0.00 | 75 | 939.2 |
| 20260509012830 | 75 | 169 | 4.0 | 7.0 | 0.00 | 0.00 | 0.00 | 74 | 939.2 |
| 20260509012324 | 76 | 146 | 4.0 | 7.0 | 0.00 | 0.00 | 0.00 | 73 | 939.0 |
| 20260509011818 | 76 | 155 | 4.0 | 7.0 | 0.00 | 0.00 | 0.00 | 73 | 938.9 |
| 20260509011312 | 76 | 155 | 4.0 | 8.0 | 0.00 | 0.00 | 0.00 | 72 | 938.9 |
| 20260509010809 | 76 | 163 | 4.0 | 8.0 | 0.00 | 0.00 | 0.00 | 71 | 939.0 |
| 20260509010308 | 76 | 157 | 3.0 | 8.0 | 0.00 | 0.00 | 0.00 | 70 | 938.9 |
| 20260509005808 | 77 | 182 | 3.0 | 6.0 | 0.00 | 0.00 | 0.00 | 70 | 938.9 |
| 20260509005311 | 77 | 184 | 3.0 | 6.0 | 0.00 | 0.00 | 0.00 | 69 | 938.8 |
| 20260509004809 | 77 | 232 | 4.0 | 7.0 | 0.00 | 0.00 | 0.00 | 69 | 938.8 |
| 20260509004310 | 77 | 149 | 3.0 | 7.0 | 0.00 | 0.00 | 0.00 | 68 | 938.8 |
| 20260509003807 | 77 | 169 | 3.0 | 7.0 | 0.00 | 0.00 | 0.00 | 68 | 938.7 |
| 20260509003308 | 78 | 148 | 3.0 | 7.0 | 0.00 | 0.00 | 0.00 | 68 | 938.6 |
| 20260509002818 | 78 | 164 | 3.0 | 6.0 | 0.00 | 0.00 | 0.00 | 67 | 938.5 |
| 20260509002807 | 78 | 157 | 3.0 | 6.0 | 0.00 | 0.00 | 0.00 | 68 | 938.6 |
| 20260509002431 | 78 | 157 | 3.0 | 6.0 | 0.00 | 0.00 | 0.00 | 67 | 938.6 |
| 20260509001305 | 78 | 165 | 4.0 | 8.0 | 0.00 | 0.00 | 0.00 | 66 | 938.5 |
| 20260509000805 | 78 | 173 | 4.0 | 8.0 | 0.00 | 0.00 | 0.00 | 66 | 938.5 |
| 20260509000306 | 78 | 161 | 4.0 | 8.0 | 0.00 | 0.00 | 0.00 | 66 | 938.6 |
| 20260508235800 | 78 | 162 | 4.0 | 8.0 | 0.00 | 0.00 | 0.00 | 65 | 938.6 |
| 20260508235306 | 78 | 190 | 5.0 | 10.0 | 0.00 | 0.00 | 0.00 | 65 | 938.5 |
| 20260508234802 | 79 | 148 | 6.0 | 12.0 | 0.00 | 0.00 | 0.00 | 64 | 938.5 |
| 20260508234541 | 79 | 202 | 5.0 | 12.0 | 0.00 | 0.00 | 0.00 | 63 | 938.5 |
| 20260508233802 | 80 | 214 | 4.0 | 8.0 | 0.00 | 0.00 | 0.00 | 63 | 938.5 |
| 20260508233300 | 80 | 175 | 5.0 | 10.0 | 0.00 | 0.00 | 0.00 | 63 | 938.5 |
| 20260508232800 | 80 | 204 | 6.0 | 10.0 | 0.00 | 0.00 | 0.00 | 63 | 938.4 |
| 20260508232301 | 81 | 195 | 6.0 | 11.0 | 0.00 | 0.00 | 0.00 | 62 | 938.4 |
| 20260508231802 | 81 | 200 | 6.0 | 11.0 | 0.00 | 0.00 | 0.00 | 62 | 938.4 |
| 20260508231533 | 80 | 157 | 6.0 | 11.0 | 0.00 | 0.00 | 0.00 | 63 | 938.4 |
| 20260508230800 | 80 | 140 | 6.0 | 12.0 | 0.00 | 0.00 | 0.00 | 61 | 938.4 |
| 20260508230302 | 80 | 167 | 7.0 | 14.0 | 0.00 | 0.00 | 0.00 | 63 | 938.3 |
| 20260508225801 | 80 | 193 | 8.0 | 15.0 | 0.00 | 0.00 | 0.00 | 62 | 938.3 |
| 20260508225258 | 80 | 209 | 7.0 | 15.0 | 0.00 | 0.00 | 0.00 | 62 | 938.3 |
| 20260508224800 | 79 | 183 | 7.0 | 13.0 | 0.00 | 0.00 | 0.00 | 64 | 938.2 |
| 20260508224259 | 79 | 214 | 8.0 | 15.0 | 0.00 | 0.00 | 0.00 | 64 | 938.3 |